TimeAKST,TemperatureF,Dew PointF,Humidity,Sea Level PressureIn,VisibilityMPH,Wind Direction,Wind SpeedMPH,Gust SpeedMPH,PrecipitationIn,Events,Conditions,WindDirDegrees,DateUTC
12:20 AM,37.0,34.0,89,30.08,10.0,Calm,Calm,-,N/A,,Overcast,0,2014-01-30 09:20:00
12:53 AM,36.0,34.0,93,30.09,10.0,NW,3.5,-,N/A,,Overcast,320,2014-01-30 09:53:00
1:53 AM,35.1,34.0,96,30.09,10.0,Calm,Calm,-,N/A,,Overcast,0,2014-01-30 10:53:00
2:09 AM,35.1,33.1,92,30.09,10.0,West,4.6,-,N/A,,Overcast,260,2014-01-30 11:09:00
2:47 AM,35.6,33.8,93,30.09,2.5,Calm,Calm,-,N/A,,Overcast,0,2014-01-30 11:47:00
3:02 AM,34.0,34.0,100,30.09,0.8,Calm,Calm,-,N/A,,Overcast,0,2014-01-30 12:02:00
3:53 AM,33.1,33.1,100,30.09,0.2,WNW,4.6,-,N/A,Fog,Fog,300,2014-01-30 12:53:00
4:53 AM,32.0,32.0,100,30.09,0.2,Calm,Calm,-,N/A,Fog,Fog,0,2014-01-30 13:53:00
5:18 AM,32.0,30.9,96,30.09,0.2,Calm,Calm,-,N/A,Fog,Fog,0,2014-01-30 14:18:00
5:27 AM,32.0,30.9,96,30.09,0.2,Calm,Calm,-,N/A,Fog,Fog,0,2014-01-30 14:27:00
5:42 AM,30.9,30.0,96,30.10,0.2,Calm,Calm,-,N/A,Fog,Light Freezing Fog,0,2014-01-30 14:42:00
5:53 AM,30.9,30.9,100,30.09,0.1,Calm,Calm,-,N/A,Fog,Light Freezing Fog,0,2014-01-30 14:53:00
6:53 AM,30.0,28.9,96,30.11,0.2,Calm,Calm,-,N/A,Fog,Light Freezing Fog,0,2014-01-30 15:53:00
7:53 AM,30.0,28.9,96,30.11,0.1,Calm,Calm,-,N/A,Fog,Light Freezing Fog,0,2014-01-30 16:53:00
8:53 AM,28.9,28.0,96,30.12,0.1,Calm,Calm,-,N/A,Fog,Light Freezing Fog,0,2014-01-30 17:53:00
9:53 AM,28.0,27.0,96,30.13,0.1,Calm,Calm,-,N/A,Fog,Light Freezing Fog,0,2014-01-30 18:53:00
10:53 AM,28.9,28.0,96,30.14,0.1,Calm,Calm,-,N/A,Fog,Light Freezing Fog,0,2014-01-30 19:53:00
11:53 AM,28.9,28.9,100,30.13,0.2,WSW,5.8,-,N/A,Fog,Light Freezing Fog,240,2014-01-30 20:53:00
12:53 PM,30.9,30.0,96,30.13,0.5,East,3.5,-,N/A,Fog,Light Freezing Fog,90,2014-01-30 21:53:00
1:08 PM,30.9,30.9,100,30.13,0.2,Calm,Calm,-,N/A,Fog,Light Freezing Fog,0,2014-01-30 22:08:00
1:23 PM,30.9,30.0,96,30.13,0.2,Calm,Calm,-,N/A,Fog,Light Freezing Fog,0,2014-01-30 22:23:00
1:53 PM,32.0,30.0,92,30.12,0.2,WSW,3.5,-,N/A,Fog,Fog,240,2014-01-30 22:53:00
2:53 PM,30.9,30.0,96,30.12,0.2,Calm,Calm,-,N/A,Fog,Light Freezing Fog,0,2014-01-30 23:53:00
3:53 PM,30.9,30.0,96,30.12,0.2,Calm,Calm,-,N/A,Fog,Light Freezing Fog,0,2014-01-31 00:53:00
4:53 PM,30.0,28.9,96,30.12,0.2,Calm,Calm,-,N/A,Fog,Light Freezing Fog,0,2014-01-31 01:53:00
5:53 PM,28.9,27.0,92,30.12,0.2,Calm,Calm,-,N/A,Fog,Light Freezing Fog,0,2014-01-31 02:53:00
6:49 PM,28.4,26.6,93,30.12,0.2,Calm,Calm,-,N/A,Fog,Light Freezing Fog,0,2014-01-31 03:49:00
6:53 PM,28.0,26.1,92,30.12,0.2,Calm,Calm,-,N/A,Fog,Light Freezing Fog,0,2014-01-31 03:53:00
7:07 PM,28.0,26.1,92,30.12,0.2,Calm,Calm,-,N/A,Fog,Light Freezing Fog,0,2014-01-31 04:07:00
7:34 PM,28.0,25.0,88,30.12,0.2,Calm,Calm,-,N/A,Fog,Light Freezing Fog,0,2014-01-31 04:34:00
7:53 PM,28.0,25.0,88,30.12,0.5,Calm,Calm,-,N/A,Fog,Light Freezing Fog,0,2014-01-31 04:53:00
8:53 PM,28.0,25.0,88,30.12,0.5,Calm,Calm,-,N/A,Fog,Light Freezing Fog,0,2014-01-31 05:53:00
9:11 PM,28.0,25.0,88,30.11,0.2,Calm,Calm,-,N/A,Fog,Light Freezing Fog,0,2014-01-31 06:11:00
9:53 PM,27.0,24.1,89,30.11,0.2,WSW,3.5,-,N/A,Fog,Light Freezing Fog,250,2014-01-31 06:53:00
10:48 PM,26.6,24.8,93,30.11,0.2,Calm,Calm,-,N/A,Fog,Light Freezing Fog,0,2014-01-31 07:48:00
10:53 PM,27.0,24.1,89,30.11,0.2,West,3.5,-,N/A,Fog,Light Freezing Fog,280,2014-01-31 07:53:00
11:53 PM,28.9,25.0,85,30.11,0.2,WNW,3.5,-,N/A,Fog,Light Freezing Fog,300,2014-01-31 08:53:00